Simultaneous Nadir Overpasses (SNOs) Predictions

Prediction of SNOs between GOES-16 and METOP-B Satellite Orbit:

Table of predicted SNOs for the next 14.0 days since TLE Epoch: 8/9/2019
Index Date Time (GOES-16) GOES-16 Lat,Lon METOP-B Lat,Lon Distance(km) Time Diff (sec)
1 08/10/2019 02:12:05 -0.01, -75.17 0.88, -71.09 463.90 80
2 08/11/2019 14:33:37 0.01, -75.18 0.15, -75.65 54.77 80
3 08/14/2019 02:29:19 -0.02, -75.17 -0.01, -75.26 10.68 80
4 08/16/2019 14:27:30 0.01, -75.19 -0.09, -74.83 42.05 80
5 08/18/2019 02:49:11 -0.02, -75.19 -0.94, -79.42 481.42 80
6 08/19/2019 02:25:51 -0.01, -75.20 0.17, -74.43 88.69 80
7 08/20/2019 14:47:23 0.02, -75.23 0.85, -78.99 427.69 80
8 08/21/2019 14:24:03 0.02, -75.24 -0.27, -73.99 142.78 80
9 08/23/2019 02:45:43 -0.02, -75.25 -0.77, -78.59 379.71 80




NCC Satellite Simultaneous Nadir Overpasses (SNOs) Prediction Service
